sat.trackr.live / text

‹ back to catalog

STARLINK-4443

NORAD 53508 · 2022-099AV

PAYLOAD ACTIVE UNKNOWN

§ Identity

Operator
Country
US
Launch date
2022-08-12
Launch site
AFWTR
Launch vehicle
Mass (kg)
RCS (m²)

Purposes: comms

External: N2YO · Heavens-Above · Gunter

§ Orbital elements

Epoch: 2026-09-19T03:00:54.654048Z

Period
93.91 min
Inclination
97.2854°
Eccentricity
0.0001563
Mean motion
15.33434592 rev/d
Perigee alt
464.5 km
Apogee alt
466.6 km
Semi-major
6,843.7 km
B*
2.2972e-5
RAAN
19.8209°
Arg perigee
88.7570°
Mean anomaly
271.3851°
Rev number
22,534

§ Raw data

STARLINK-44431 53508U 22099AV  26262.12563257  .00000666  00000+0  22972-4 0  99952 53508  97.2854  19.8209 0001563  88.7570 271.3851 15.33434592225349

JSON: /api/v1/satellites/53508 · /tle

For live sub-satellite position, see the globe view (requires WebGL).

§ Visibility from observer

Set your observer location to see the next 7 days of passes ≥ 10°. The values pass through the URL so the page stays shareable.

No JS? Fill the form by hand. The geolocation button needs JavaScript.